Location: Warszawa
(52.2500°N, 21.0000°E)
Time: 13:52:56
(UTC+02:00)

Vanguard 2 - Pass Details

Date: 14 February 2023
Orbit: 553 x 2927 km, 32.9° (Epoch: 27 March)

Event Time Altitude Azimuth Distance (km) Brightness Sun altitude
Rises 00:42:07 0° 263° (W) 5,781 - -49.6°
Reaches altitude 10° 00:48:05 10° 244° (WSW) 5,183 - -49.2°
Maximum altitude 00:55:40 16° 215° (SW) 5,080 - -48.8°
Drops below altitude 10° 01:03:59 10° 186° (S) 5,737 - -48.2°
Sets 01:11:26 0° 168° (SSE) 6,736 - -47.7°
